Wind_Speed
88 85 81 75 71 69 68 68 66 65 66 65 64 63 63 62 61 62 63 64 64 62 59 58 59 61 63 64 65 66 65 64 64 64 65 65 62 61 60 61 61 60 60 61 62 62 63 63 64 64 64 64 65 64 64 65 66 65 65 64 64 62 61 58 56 54 53 53 52 49 46 46 47 48 48 48 46 45 45 44 45 47 48 47 45 42
89 84 78 74 73 74 73 72 70 68 68 67 65 64 63 62 62 63 64 65 64 62 60 59 59 61 63 63 64 64 62 61 62 63 63 62 61 60 60 61 60 60 60 61 62 62 62 63 64 64 64 65 65 65 64 65 65 66 66 65 65 64 62 61 58 55 54 55 54 52 48 45 45 46 46 46 46 46 46 46 46 47 48 47 44 41
87 80 76 77 77 77 75 73 72 70 70 69 66 65 64 62 62 63 64 65 64 63 61 60 60 62 63 63 61 60 59 59 59 59 59 59 58 58 59 59 59 59 59 59 60 61 61 62 63 63 63 64 64 64 64 64 65 65 66 65 65 64 63 62 60 56 55 55 55 54 50 47 46 45 45 45 45 45 45 45 45 45 45 44 43 42
84 79 79 80 79 78 76 74 73 72 71 70 67 65 63 63 63 63 64 65 64 63 62 61 62 63 62 60 58 57 56 56 55 54 54 55 55 56 56 56 56 55 56 57 57 58 58 59 60 60 61 61 61 60 60 61 62 63 64 64 64 64 63 62 60 58 55 54 55 54 52 49 47 47 46 45 44 44 44 44 45 45 45 44 44 44
86 83 83 82 80 79 77 75 73 72 71 69 67 65 65 64 64 64 66 66 65 64 63 62 62 62 60 57 55 54 54 53 52 51 52 52 53 54 54 53 52 52 53 54 54 54 55 55 56 57 57 57 56 56 56 56 57 59 60 61 62 62 62 61 60 58 56 54 54 54 54 51 49 49 49 48 46 45 45 45 46 46 46 45 46 47
90 87 85 83 82 80 78 75 73 72 71 70 68 67 66 67 66 66 67 67 66 66 64 63 62 60 57 55 54 53 52 50 50 50 50 51 51 51 51 51 50 51 52 52 52 52 52 53 53 54 54 53 52 52 52 51 52 53 54 56 57 58 58 58 57 57 55 54 55 55 55 54 52 51 51 51 50 49 48 47 47 47 48 48 48 48
92 89 87 85 83 80 78 75 74 73 72 71 69 68 69 68 68 68 68 67 66 66 65 65 62 59 57 55 53 52 51 50 50 49 49 49 50 50 50 50 50 51 51 51 51 52 52 52 52 53 52 51 50 49 48 48 48 49 49 50 51 52 53 54 54 54 54 53 54 55 55 55 55 53 52 52 52 51 51 51 50 50 49 50 49 49
93 91 89 87 84 82 78 75 73 73 72 70 69 70 70 70 69 69 68 67 67 67 68 66 62 59 56 54 53 53 52 51 49 48 49 50 50 49 49 49 50 50 50 51 51 51 52 52 52 52 52 51 50 48 46 46 45 45 45 44 43 42 43 45 42 43 49 51 53 55 55 55 56 56 56 53 52 52 51 52 52 51 51 50 49 49
93 92 90 88 86 82 77 75 74 74 73 71 71 72 72 72 72 71 70 69 70 70 68 64 60 56 54 53 53 53 51 49 47 47 48 48 48 48 49 49 49 49 49 50 50 50 51 52 52 52 52 51 49 47 45 44 43 42 41 40 38 34 36 38 34 32 38 42 46 51 54 54 55 57 57 56 54 52 51 51 51 51 51 50 50 49
94 93 92 91 86 81 78 77 77 76 73 72 73 74 73 73 73 73 72 72 72 71 65 61 58 55 53 53 52 51 49 47 47 48 48 46 44 45 47 47 48 49 49 49 49 49 50 51 51 51 51 50 49 47 45 43 41 40 38 37 36 34 38 43 41 37 31 28 31 39 44 48 51 54 55 55 54 52 51 51 51 51 52 52 52 51
95 94 94 91 86 83 81 81 79 77 75 75 77 76 74 74 74 74 73 73 73 67 60 58 57 55 53 52 51 49 48 48 49 49 47 45 43 43 43 44 45 47 48 49 48 49 50 50 50 50 50 50 48 46 44 42 40 38 37 35 36 36 39 43 44 43 37 29 27 30 35 39 43 47 50 52 54 53 52 52 51 52 52 53 53 53
95 94 92 89 87 86 85 84 81 79 77 78 79 77 76 75 75 74 74 74 70 60 56 58 58 55 52 49 48 48 49 50 51 49 46 46 47 45 44 44 44 45 45 46 47 48 49 50 49 49 49 49 47 45 44 41 39 38 36 35 35 36 37 39 41 41 38 35 37 38 40 41 41 43 46 50 52 53 53 53 52 52 52 52 52 51
94 92 90 89 89 89 87 86 84 81 80 81 80 79 78 76 75 74 72 69 62 55 57 61 60 56 50 46 47 49 50 51 51 50 48 48 48 47 47 46 45 44 44 44 46 47 49 50 49 49 49 48 47 44 42 40 38 38 36 35 34 35 36 37 40 40 37 35 40 44 45 45 45 46 48 50 52 53 54 54 53 52 51 50 50 50
95 93 92 90 89 89 87 86 83 80 79 80 78 76 75 74 72 70 66 62 57 55 61 64 61 55 49 47 49 50 50 51 51 50 47 47 48 48 48 47 46 44 44 45 46 47 49 49 49 49 49 49 47 44 42 40 38 37 36 34 33 34 36 37 39 42 42 40 42 44 46 47 48 49 51 51 52 53 54 54 54 53 52 51 51 51
95 94 91 88 86 85 84 82 80 77 77 78 77 74 73 70 67 64 62 58 56 58 63 65 60 52 49 49 50 51 51 51 50 48 45 45 48 51 50 48 46 46 47 47 47 48 49 49 50 49 49 49 48 45 43 41 39 37 36 35 34 34 35 37 37 40 43 44 45 46 47 49 48 48 49 49 50 51 52 53 54 53 52 51 51 51
96 92 88 85 84 82 81 80 79 79 79 80 79 76 72 67 65 64 62 58 57 60 64 63 57 51 50 51 51 53 52 49 46 45 45 46 48 52 53 51 49 49 49 49 49 49 49 49 49 48 49 49 49 46 44 43 42 39 37 36 35 35 36 37 38 38 40 42 43 44 44 45 45 45 45 46 47 48 48 49 50 50 50 50 51 51
95 92 88 86 85 83 81 80 79 79 81 82 80 74 70 68 68 67 63 60 59 60 60 58 53 50 51 51 52 52 49 46 45 45 45 47 49 53 53 52 52 53 53 52 50 50 49 49 48 48 48 48 49 48 46 45 45 43 41 39 38 37 38 38 38 39 38 39 39 40 40 41 41 41 42 43 44 45 46 46 47 48 49 50 51 52
94 92 89 87 84 83 83 82 80 79 81 82 77 72 72 74 72 68 63 60 58 57 55 53 51 50 50 51 51 50 47 46 45 45 47 49 51 52 51 51 51 52 53 51 50 49 49 48 48 47 48 48 49 49 47 47 46 45 44 43 41 40 39 40 40 40 39 39 39 39 39 39 39 39 39 40 41 42 44 46 47 49 51 52 52 53
94 93 90 87 85 84 84 84 83 81 81 79 74 74 76 75 71 67 63 59 56 54 52 50 50 49 49 50 50 49 47 46 46 46 49 51 50 49 49 48 48 49 50 50 49 49 49 49 48 48 48 49 49 50 49 48 47 46 45 44 43 42 41 41 41 41 41 41 41 40 40 39 38 39 39 40 41 42 44 46 47 49 50 51 52 53
94 93 91 89 88 86 85 85 83 81 80 78 77 78 78 74 70 67 64 60 58 55 51 49 49 48 48 49 50 48 47 47 46 48 51 51 49 47 46 46 47 48 49 49 48 48 48 49 48 48 48 49 50 50 51 50 48 47 46 45 45 45 43 42 42 42 42 43 43 42 42 41 40 41 41 42 42 43 44 45 46 47 48 49 50 52
94 93 92 91 91 89 85 81 79 78 78 77 76 76 75 72 70 68 66 63 60 56 52 49 47 46 47 49 48 48 48 47 47 49 51 50 48 46 45 45 46 47 48 48 47 47 47 48 49 49 49 48 49 50 51 51 50 48 47 47 47 47 46 45 44 44 44 44 45 45 44 43 43 43 44 44 44 44 44 45 45 46 47 48 49 51
93 93 92 92 91 86 80 77 76 77 78 76 74 73 71 70 70 69 66 63 60 57 53 49 47 45 46 48 48 48 48 47 48 50 50 50 48 45 43 44 46 46 46 46 46 45 46 47 48 49 49 48 48 50 51 52 51 50 49 48 48 48 48 48 47 46 46 45 45 46 46 46 45 45 45 46 46 46 46 46 46 47 47 49 50 51
91 92 91 90 86 81 79 79 79 80 80 79 77 75 73 72 70 67 63 61 60 57 53 50 48 46 46 48 49 50 49 48 49 51 51 50 48 45 43 44 45 46 46 45 45 45 45 46 47 47 48 48 48 49 50 51 52 51 50 50 49 50 50 49 49 48 48 47 46 46 47 47 47 47 47 47 48 48 48 48 48 49 49 51 52 53
88 89 88 87 84 83 84 84 83 82 83 83 81 78 75 71 68 64 62 61 60 57 53 50 47 46 46 47 49 50 50 49 50 51 50 48 47 44 43 44 45 45 45 44 44 44 45 45 46 47 46 47 47 48 49 51 52 52 51 51 50 50 51 50 50 49 49 49 49 48 48 48 48 48 49 49 50 50 51 51 51 51 52 53 55 56
84 85 86 86 86 87 87 86 85 84 84 82 80 77 73 69 66 64 63 62 59 56 52 49 47 46 45 45 47 49 50 50 49 49 48 47 45 43 43 43 44 44 43 43 42 42 43 45 45 46 45 45 45 46 48 50 51 51 51 51 51 51 51 51 51 51 51 51 50 50 50 50 50 50 50 51 51 51 51 51 52 53 54 55 56 57
83 85 85 86 87 85 83 82 80 80 79 78 76 73 70 68 65 63 63 60 57 54 51 49 48 47 45 45 45 46 48 49 49 48 47 47 45 43 41 42 43 43 42 41 41 42 42 43 44 45 45 45 44 45 46 48 49 50 50 50 51 51 51 51 51 52 52 52 52 52 52 52 52 52 52 52 52 52 52 53 53 54 56 57 58 59
81 82 84 85 83 80 77 76 75 74 73 73 71 69 68 66 64 62 61 57 55 53 51 49 48 47 45 44 43 43 46 49 49 48 47 47 45 43 42 42 42 42 41 40 40 41 41 42 43 44 45 44 44 44 44 45 47 47 48 49 50 51 51 52 52 52 53 53 53 53 54 54 54 53 53 53 54 54 54 55 56 57 58 59 60 60
78 79 80 81 79 78 78 77 75 73 72 71 70 69 67 66 65 63 59 56 55 53 50 49 49 47 45 43 42 42 45 48 49 48 47 47 46 44 43 43 42 41 40 40 41 42 42 43 43 44 44 43 42 42 43 43 44 44 45 47 48 49 50 51 52 52 53 53 53 53 53 53 54 54 55 55 56 56 57 56 57 58 59 59 60 61
75 75 77 78 78 78 78 77 75 74 72 72 70 69 67 66 65 62 59 57 55 53 51 50 49 46 45 44 42 42 44 47 49 49 47 46 44 43 43 43 43 42 41 40 41 42 43 43 44 44 43 43 42 42 42 42 42 42 42 44 45 46 47 48 49 49 50 50 51 51 52 53 53 54 55 56 56 57 56 56 56 57 58 58 59 59
72 73 75 76 76 76 76 75 74 73 72 72 70 69 68 66 64 61 59 58 56 53 52 50 48 47 46 45 43 43 44 46 47 47 45 43 41 41 42 43 43 43 42 41 41 42 42 43 44 44 44 43 42 42 42 42 40 40 40 41 42 43 45 45 46 47 47 48 49 50 50 51 52 53 54 55 55 55 54 54 54 56 56 57 58 58
70 71 73 73 74 74 74 73 72 72 71 71 71 70 69 66 64 61 59 57 55 53 52 50 48 48 47 44 43 42 42 43 45 45 44 42 42 42 43 43 43 43 43 42 41 42 42 42 43 44 44 43 42 42 42 40 39 39 39 40 41 42 43 44 44 44 45 46 46 47 48 50 50 51 52 52 52 51 51 52 53 54 55 56 57 58
69 71 72 72 72 73 73 72 72 70 70 71 71 70 68 65 62 59 57 55 53 51 49 48 47 46 45 43 42 41 42 44 45 45 45 44 45 44 44 43 43 43 43 43 42 42 41 42 42 43 43 42 42 41 41 39 38 38 38 39 39 40 41 41 41 42 43 44 45 47 48 48 48 48 50 51 51 50 51 52 53 55 56 57 58 58
68 70 71 71 71 72 71 70 70 69 71 72 71 69 66 63 60 58 56 54 51 49 47 46 45 44 43 42 42 41 43 46 47 47 48 47 47 46 46 45 43 43 43 43 43 42 41 41 41 42 42 42 41 40 39 38 37 37 37 37 37 37 38 37 36 38 40 42 44 45 46 47 47 47 50 52 52 52 53 54 55 56 57 57 58 59
67 68 70 71 71 70 70 69 68 70 71 71 69 66 63 60 59 57 56 54 51 49 48 46 45 44 43 43 43 43 45 48 49 50 49 49 48 47 46 45 45 44 44 44 43 42 41 41 41 41 41 41 40 38 36 35 35 35 35 35 36 36 35 33 33 36 39 43 44 43 43 46 48 48 51 53 53 54 55 55 56 56 57 58 59 59
66 67 69 70 70 69 69 68 68 68 68 67 65 63 61 59 58 57 55 54 52 50 49 48 46 45 45 45 45 44 46 48 48 48 49 49 49 47 45 45 46 45 44 44 44 43 42 41 41 41 41 41 40 39 37 36 35 35 35 36 37 36 34 33 35 38 39 43 45 42 41 44 45 46 50 53 53 55 56 56 56 57 58 59 59 59
66 67 68 69 69 69 68 67 67 67 65 64 62 60 59 58 58 57 56 54 52 51 49 47 46 45 45 46 45 45 45 46 46 47 49 49 47 46 47 47 46 46 46 45 44 43 42 42 41 41 41 41 41 41 40 39 37 37 38 39 40 39 37 38 40 41 40 42 45 44 43 44 44 44 48 52 54 56 58 58 57 58 58 58 59 60
66 67 67 68 69 68 67 67 66 65 64 64 62 60 60 60 59 58 56 54 52 50 48 45 44 44 43 43 43 44 44 44 45 48 50 49 47 48 49 48 47 47 47 46 44 43 42 42 42 41 42 42 42 42 41 40 40 40 41 42 43 42 41 41 43 43 42 43 45 47 46 46 46 48 51 53 55 57 58 58 57 57 58 59 60 61
66 66 67 68 69 68 68 67 66 65 64 64 63 62 61 60 58 57 56 54 52 50 47 44 43 43 42 41 42 44 44 44 46 50 52 51 50 50 50 49 47 46 45 43 42 42 42 42 42 42 42 42 43 42 42 41 41 41 42 43 44 43 43 43 43 43 43 42 43 46 48 48 49 51 52 54 56 57 58 58 58 58 59 60 60 61
65 65 66 67 68 68 68 67 66 65 65 63 63 62 61 60 58 58 56 54 52 50 49 46 44 43 42 42 43 45 45 46 48 52 53 52 51 51 49 47 45 43 42 41 41 42 42 42 42 43 43 43 43 43 42 42 42 42 43 44 45 45 44 44 44 43 43 43 44 45 47 49 50 50 51 53 56 57 57 57 57 58 59 60 60 60
64 65 66 67 67 68 68 67 67 66 65 64 63 63 61 60 58 57 55 52 50 49 48 47 46 45 44 45 46 47 48 49 52 53 54 52 51 49 47 45 44 42 41 41 42 42 42 42 43 43 43 43 43 43 43 43 43 44 45 46 46 46 46 45 44 44 45 45 44 43 44 48 50 51 52 53 55 56 56 56 57 57 58 59 59 59
62 63 64 65 65 66 67 67 67 66 65 65 64 63 61 60 58 56 54 51 49 48 48 47 47 46 46 47 49 50 50 51 52 53 53 51 50 48 47 46 44 43 42 42 42 42 43 43 43 43 44 44 43 43 43 44 45 45 46 47 47 48 47 46 45 46 46 45 44 42 45 50 53 54 55 55 56 57 57 56 56 57 58 59 60 59
57 59 61 61 61 63 65 66 66 66 66 65 64 63 61 59 57 56 54 52 49 48 48 48 48 46 46 47 49 50 51 51 51 51 51 51 50 49 48 46 45 43 43 42 42 43 44 44 44 44 44 44 44 44 44 45 45 46 47 47 47 47 46 45 45 46 46 45 44 44 48 54 56 55 56 57 57 57 57 57 58 58 59 59 59 59
46 49 53 55 58 60 63 64 65 65 65 65 64 62 61 59 57 56 54 51 49 49 49 49 48 46 46 48 50 50 50 50 50 51 51 50 50 49 48 46 45 44 43 43 43 44 44 44 45 45 45 45 45 45 46 46 46 46 46 46 45 45 45 45 46 46 46 45 46 47 49 54 56 55 56 57 57 58 58 58 58 58 59 59 58 59
34 36 40 45 52 58 61 63 63 64 64 64 63 62 61 59 57 55 53 50 49 50 50 49 48 47 48 49 50 50 50 50 50 50 50 50 50 49 48 46 45 44 44 44 44 45 45 45 46 46 46 46 47 47 47 47 47 46 46 45 44 44 44 45 45 46 46 46 47 48 50 53 54 55 56 57 57 57 57 57 57 57 58 58 57 58
28 29 32 36 44 52 58 61 61 61 61 60 60 59 58 57 55 54 51 49 49 50 50 49 48 49 49 50 50 50 50 50 50 50 50 50 49 48 47 46 45 45 45 45 45 45 45 46 46 47 47 47 47 48 48 47 47 46 46 45 44 44 44 44 44 45 46 46 47 48 50 52 52 53 54 54 54 55 55 55 56 56 56 56 57 57
28 30 31 33 38 46 53 56 57 57 57 57 56 56 55 54 53 52 50 49 49 50 50 49 49 50 50 51 51 51 51 50 49 49 49 49 48 48 47 46 46 45 45 45 45 45 45 46 46 46 47 47 48 48 48 47 47 46 46 45 45 44 45 44 44 45 46 46 46 47 49 50 51 51 52 52 53 53 54 55 56 56 56 57 57 57
28 31 33 35 38 42 47 51 53 54 54 54 54 53 53 52 51 51 50 49 49 49 49 49 50 51 51 51 51 50 49 48 48 48 49 49 48 48 48 47 47 46 46 45 45 45 45 46 46 47 47 48 48 48 48 48 47 47 46 45 45 45 45 44 44 45 46 46 47 47 48 49 50 51 52 53 53 54 55 56 57 57 56 57 57 57
29 31 33 36 39 42 45 47 49 50 51 51 51 51 50 50 50 49 49 49 49 49 49 49 50 50 50 50 50 49 48 48 49 50 50 50 49 49 49 48 47 46 46 45 45 45 45 46 46 47 47 48 48 48 48 48 48 47 47 46 46 46 46 46 46 47 47 47 48 48 49 50 50 52 53 53 53 54 55 55 55 55 55 56 56 57
30 32 34 36 39 41 44 46 47 48 48 48 47 47 47 48 48 49 49 48 48 47 47 48 48 48 49 49 49 49 49 50 51 51 51 50 49 49 48 48 48 47 46 46 46 46 46 46 47 48 48 48 49 48 48 48 48 48 48 48 48 48 47 48 48 49 49 50 51 51 51 51 51 52 52 52 53 53 54 54 55 55 56 57 57 58
32 33 34 36 38 40 43 44 46 46 46 45 46 46 46 47 48 48 48 48 47 47 47 47 47 48 48 48 49 49 49 50 51 52 51 50 49 48 48 47 47 47 46 46 46 46 46 46 47 48 48 49 49 49 49 50 50 50 50 50 49 48 48 49 50 51 52 53 54 53 52 52 52 52 53 53 54 54 55 56 56 57 58 59 59 59
32 33 35 36 37 38 40 41 42 43 43 44 44 45 45 47 47 47 48 48 48 48 48 48 48 48 49 49 49 49 50 50 51 51 50 49 48 47 47 46 45 45 45 44 45 45 45 46 47 48 49 50 50 51 51 52 52 52 52 51 50 49 49 50 51 53 56 58 57 54 54 54 54 55 55 55 56 56 57 58 59 60 60 60 60 60
Wind_Direction
225 225 225 226 226 227 227 227 226 225 226 227 226 226 226 226 227 229 231 232 233 233 232 231 231 233 233 234 235 236 236 237 239 240 242 244 244 244 245 246 246 247 247 248 249 250 251 252 253 254 255 255 256 256 255 256 257 259 259 260 260 260 262 263 262 261 261 261 262 265 266 264 262 262 264 266 268 268 269 273 280 285 287 290 292 292
224 224 223 224 224 225 225 224 224 224 225 226 225 226 226 227 227 229 230 231 232 232 231 230 231 233 234 234 235 236 237 237 239 240 242 244 245 246 246 246 247 247 248 248 249 250 251 252 253 254 255 256 256 257 257 257 257 258 259 260 260 260 260 261 262 262 261 261 262 263 265 264 261 260 262 265 267 267 269 273 278 282 284 286 289 291
223 222 222 223 223 224 224 224 224 223 224 225 224 225 226 226 227 230 231 232 232 232 231 230 231 232 234 235 236 237 238 238 239 241 243 244 245 245 246 246 247 247 248 249 250 250 251 252 253 254 255 256 257 257 257 257 258 258 258 259 260 260 260 260 262 262 262 262 263 262 263 262 260 258 259 263 266 268 270 274 278 279 281 283 286 290
222 221 221 222 223 223 224 224 224 224 225 225 224 225 226 226 227 229 231 233 233 232 232 230 231 232 234 236 237 238 239 239 240 241 242 243 244 245 245 246 246 247 248 249 249 250 251 252 253 253 254 255 256 257 257 258 258 258 259 259 259 260 260 260 261 262 262 262 263 263 261 261 260 257 258 261 265 268 271 273 276 277 278 281 284 287
220 219 220 221 222 223 223 223 224 225 225 226 225 225 225 226 227 228 230 231 231 232 231 231 232 233 235 237 238 239 240 240 241 241 241 242 243 244 245 246 247 247 247 248 248 249 250 251 252 253 253 254 255 256 257 258 259 259 259 259 259 259 260 261 262 263 263 263 263 263 261 260 259 258 258 260 263 268 271 274 275 275 276 280 283 285
218 218 219 220 221 222 222 222 223 224 225 225 225 225 225 226 226 227 229 230 231 231 231 231 232 233 235 236 238 239 240 241 241 242 242 242 243 245 246 246 246 246 247 247 248 248 249 249 251 252 253 254 255 256 258 259 260 260 260 261 260 260 260 261 263 265 267 266 263 262 261 260 259 259 259 260 263 267 270 274 275 275 276 278 282 285
217 217 218 219 219 220 220 221 222 223 224 225 225 225 225 226 226 227 229 230 231 231 231 231 231 232 233 235 236 237 239 239 240 241 242 242 243 244 245 246 246 246 246 247 247 248 248 249 250 252 253 254 255 257 258 261 262 262 262 262 262 264 265 266 268 269 270 269 265 262 260 260 260 260 261 262 264 266 269 272 274 275 276 278 281 284
217 217 218 218 219 219 219 219 221 222 223 224 224 224 225 225 226 227 228 229 230 231 231 231 231 231 233 234 235 236 237 238 239 241 242 242 242 242 243 244 245 246 247 247 247 248 248 249 249 251 253 255 256 257 259 261 263 263 262 262 263 264 265 268 269 267 265 264 265 264 262 261 260 260 261 263 265 268 269 271 272 274 276 279 281 284
217 217 217 218 218 219 219 219 220 221 222 222 223 224 224 225 225 225 226 228 229 230 231 232 232 232 233 235 237 238 239 240 241 241 241 242 242 243 244 245 246 247 247 248 248 248 249 249 249 250 252 254 256 258 260 262 263 263 262 261 261 253 247 251 253 252 258 264 265 266 264 262 261 260 261 263 266 268 269 270 272 273 275 278 280 283
217 216 217 217 217 217 218 219 220 221 221 222 223 223 224 224 225 225 226 227 229 230 231 233 233 233 233 235 238 240 242 242 241 240 239 241 244 245 245 247 248 248 249 249 249 249 249 249 249 250 251 252 255 257 260 262 263 263 261 260 258 248 238 239 240 238 247 261 264 264 264 262 261 260 261 263 265 268 269 270 271 272 274 276 277 280
216 216 216 216 215 215 216 218 219 220 220 222 223 223 223 224 225 226 226 227 229 230 232 234 235 234 233 234 237 239 240 239 238 238 238 239 243 245 246 247 249 250 251 250 250 251 251 250 250 249 250 251 253 256 259 261 262 263 261 259 257 251 242 238 236 235 237 241 244 252 262 265 264 263 262 262 264 267 269 270 271 272 273 275 276 278
215 216 217 216 215 215 216 217 218 219 220 222 223 223 223 224 225 226 227 228 230 230 233 235 236 235 233 235 237 237 237 238 239 239 238 238 241 243 244 246 248 250 252 251 251 251 251 252 251 250 249 249 250 254 257 259 261 262 261 259 255 253 247 241 237 237 240 239 237 245 258 265 267 267 265 264 265 267 269 271 272 272 273 275 276 278
214 216 217 216 216 216 216 217 217 218 220 222 224 224 224 225 226 227 228 230 231 230 232 235 235 234 232 232 234 235 236 238 240 239 238 239 241 242 243 245 247 249 251 251 250 250 250 251 251 250 249 248 249 251 254 257 259 260 260 259 256 253 250 246 241 240 242 240 240 246 254 260 265 268 269 268 268 268 269 270 271 272 274 275 276 276
213 215 216 216 216 216 216 217 219 220 222 225 226 227 228 228 229 230 231 231 231 229 232 234 234 233 231 231 233 235 236 238 240 240 239 239 240 240 241 243 245 247 248 248 249 249 250 250 251 250 249 248 247 249 251 253 255 257 258 259 256 253 252 251 247 243 241 242 246 253 257 261 266 268 268 269 268 268 269 269 270 271 273 273 274 275
212 214 216 216 216 217 217 218 219 220 222 225 227 228 229 230 231 232 232 232 231 230 232 234 234 232 231 230 232 234 234 236 239 242 241 239 239 240 240 241 243 246 247 248 248 248 248 249 249 249 248 247 246 247 249 250 252 254 256 257 257 256 254 254 252 249 247 249 256 261 264 266 267 266 266 267 267 267 268 268 270 272 273 274 274 276
211 213 215 216 216 216 216 217 218 219 221 223 225 226 228 230 231 231 230 229 229 230 232 234 234 232 230 230 231 232 234 236 239 241 241 240 239 240 240 239 241 244 248 250 250 248 248 249 249 249 247 246 246 246 247 248 250 252 254 255 257 257 256 256 256 256 256 258 262 265 267 268 268 268 267 267 267 267 268 269 271 273 274 275 276 277
210 210 211 214 215 215 215 215 216 218 221 224 225 225 227 228 229 229 229 227 227 229 232 234 233 232 231 230 231 233 235 236 238 239 240 240 239 240 240 239 239 243 247 250 249 249 250 250 250 249 248 246 245 245 246 247 249 250 253 254 255 256 257 257 258 259 261 263 265 266 268 269 269 269 269 269 270 270 270 271 272 272 272 273 275 276
210 209 210 211 213 214 214 214 214 215 219 223 224 225 226 227 228 228 228 228 228 229 231 232 231 231 231 231 232 234 234 235 236 236 238 238 238 240 241 240 240 243 247 248 248 249 251 251 251 250 248 247 246 245 246 247 248 250 252 253 254 256 256 257 258 260 262 264 266 267 268 269 271 271 271 272 272 272 272 272 272 272 273 274 276 277
210 210 210 210 211 213 213 213 212 213 217 220 221 223 225 227 229 230 230 229 229 229 229 230 229 229 230 231 231 232 233 233 233 233 235 236 237 239 241 242 242 244 246 247 248 249 251 252 252 250 249 248 247 246 246 247 248 250 251 253 254 255 257 258 258 260 263 265 267 268 269 270 272 273 273 273 273 272 272 272 273 274 275 277 278 278
209 210 211 210 211 212 212 213 213 213 216 218 218 220 223 224 226 228 229 229 229 229 228 228 228 227 228 229 230 230 230 231 231 232 234 236 238 239 241 242 242 243 245 246 248 249 250 252 252 250 249 249 248 247 247 248 249 250 251 253 254 256 257 259 260 262 264 266 268 269 271 272 273 274 274 273 273 274 274 274 275 276 277 278 279 280
208 210 210 211 212 212 212 213 214 215 217 219 220 222 224 225 225 226 227 227 227 228 227 227 227 227 227 228 228 228 229 229 229 232 236 237 238 238 239 241 242 243 244 246 247 249 250 251 252 251 250 250 249 248 248 249 250 251 252 254 255 256 258 260 262 264 266 267 268 269 271 273 275 276 277 277 277 277 277 278 278 279 280 280 281 282
207 209 210 211 213 213 212 212 213 215 217 218 220 222 224 225 226 228 228 228 228 228 226 226 226 225 225 226 226 225 226 225 226 230 234 236 237 237 239 241 243 244 245 247 248 249 250 251 252 252 251 251 250 250 249 250 251 252 253 254 255 256 258 260 262 265 267 268 269 269 270 272 274 277 278 280 280 281 281 281 281 282 282 282 282 282
206 207 209 211 213 213 212 212 212 213 214 215 215 217 219 221 224 226 228 230 230 229 228 226 225 225 225 223 223 223 223 222 225 228 232 235 238 239 240 242 244 245 246 247 248 249 250 251 252 252 252 251 251 251 251 251 251 252 253 255 256 257 258 260 262 264 266 268 269 270 272 273 275 276 278 279 280 280 281 282 282 282 282 282 282 283
203 205 207 209 211 212 212 211 211 211 213 214 214 214 216 218 220 222 224 227 229 230 229 227 226 227 227 225 224 223 222 222 225 229 232 236 238 240 240 241 243 244 246 247 249 249 249 250 251 252 252 252 252 252 252 252 252 253 254 255 256 257 258 260 262 264 266 268 270 272 274 275 276 277 277 278 278 279 280 281 282 282 283 283 284 285
200 202 205 207 209 211 212 212 211 211 213 214 215 216 216 216 218 220 222 225 227 228 228 228 227 227 228 228 226 225 223 223 226 230 233 235 237 238 239 241 242 244 245 247 248 249 250 250 251 252 252 252 253 253 253 253 253 254 255 256 257 259 261 262 264 266 268 269 271 273 275 276 277 278 279 279 279 280 281 282 283 284 285 285 286 288
198 200 202 205 207 210 212 214 215 215 215 216 217 217 217 217 218 220 223 225 227 228 228 228 228 228 229 229 228 227 225 225 227 230 233 235 235 237 239 241 242 244 245 246 248 249 250 251 251 252 252 252 252 253 253 254 255 255 256 258 259 261 263 264 266 268 269 271 272 274 276 277 279 279 280 280 281 282 283 283 285 285 286 287 288 289
198 199 201 203 206 208 211 214 216 217 217 218 219 219 219 219 219 220 222 224 226 227 227 227 227 228 230 231 230 228 225 224 226 229 232 235 235 237 239 241 243 244 245 247 247 248 249 250 251 252 252 252 253 253 255 256 257 257 258 259 260 262 264 265 267 268 270 271 273 275 277 278 279 280 280 281 282 283 284 285 285 286 286 287 288 289
198 199 201 203 204 205 208 210 212 214 215 216 217 217 219 220 220 221 221 222 224 225 226 226 227 227 229 231 231 230 227 225 226 229 232 235 237 238 240 242 244 245 245 246 246 247 248 250 252 253 253 254 255 256 256 258 259 259 260 261 262 263 265 266 267 269 270 272 274 275 276 277 278 280 281 282 283 283 285 286 286 286 287 288 289 290
197 198 200 203 204 204 207 208 209 210 212 215 216 216 217 218 220 220 220 221 222 223 224 225 225 226 228 230 231 230 228 226 226 228 232 236 239 242 244 244 244 244 244 244 246 247 249 250 252 254 255 256 257 258 259 259 260 262 262 263 264 264 265 266 268 269 271 272 274 275 277 278 279 280 281 282 283 284 286 286 287 287 288 289 290 291
195 197 200 202 204 205 207 208 209 209 211 213 215 216 217 217 218 219 220 220 221 221 222 223 223 225 226 227 229 229 227 227 227 229 232 236 240 243 245 245 244 244 244 244 245 247 249 252 253 255 256 257 258 259 260 261 262 263 264 264 265 265 266 267 269 270 272 273 275 276 277 277 278 279 281 282 283 285 286 287 287 288 289 290 291 292
194 196 199 201 203 206 207 208 209 210 211 212 214 215 216 217 218 219 220 222 222 222 222 221 221 222 224 225 228 229 228 227 228 230 231 234 238 241 244 245 245 245 244 245 245 245 247 250 253 255 257 258 258 259 260 261 262 262 263 264 265 266 267 268 269 271 273 274 275 276 276 277 279 280 281 282 283 285 286 287 287 288 289 290 292 293
194 196 198 200 202 205 207 208 208 209 211 213 214 215 216 217 218 219 221 223 224 224 224 223 222 222 222 223 227 229 228 226 227 228 230 232 236 240 243 244 245 246 246 246 246 247 247 250 253 256 257 258 258 259 260 261 261 261 263 264 265 266 267 269 272 274 275 274 274 275 276 278 280 281 282 283 284 286 287 287 287 288 290 291 292 293
195 196 197 199 202 204 206 208 208 209 212 213 214 215 216 217 218 219 220 222 224 224 225 225 225 225 224 225 227 228 227 226 226 227 228 231 235 239 242 243 245 246 246 247 248 249 249 251 253 256 258 258 258 258 259 260 260 261 262 264 265 266 268 272 275 274 272 272 274 278 280 281 282 283 284 285 287 287 287 286 287 289 290 291 292 292
196 197 197 198 201 204 206 207 208 210 213 214 215 216 216 217 218 220 220 221 222 223 224 225 226 226 226 227 228 228 226 226 226 228 229 232 235 238 242 245 245 245 246 247 248 249 250 251 253 255 256 257 258 259 260 259 260 261 262 264 265 266 270 274 271 266 268 273 278 281 284 285 285 285 285 286 286 286 286 286 287 288 289 290 291 292
196 198 198 199 201 203 205 207 208 211 214 215 216 216 216 217 219 220 221 221 222 223 224 224 225 226 226 226 226 227 226 227 229 232 233 235 237 239 241 244 245 245 246 247 247 248 250 251 252 254 255 256 258 259 260 260 261 262 263 264 265 266 269 269 264 264 271 277 279 280 281 282 283 282 282 284 285 285 285 285 286 288 289 291 292 294
197 199 199 200 201 203 205 206 208 211 213 216 217 217 217 217 218 220 221 222 223 224 225 225 226 227 227 226 225 225 225 226 229 233 236 237 238 240 242 243 245 245 245 246 246 247 249 251 252 254 255 256 258 259 260 261 263 263 264 264 264 265 266 265 264 268 272 273 275 277 277 276 275 275 277 282 284 285 285 287 288 289 291 293 294 296
198 200 200 200 202 203 205 206 208 210 212 214 216 217 217 218 218 219 220 221 222 224 225 226 226 227 227 227 228 227 226 225 228 233 236 236 236 239 242 243 244 245 245 246 247 248 249 251 253 254 255 257 258 259 261 262 263 263 264 265 265 265 265 265 266 269 270 271 274 276 275 272 271 271 274 278 281 282 285 287 290 292 293 294 295 296
199 200 200 201 202 204 205 206 208 210 212 213 214 216 218 218 219 219 220 220 221 222 224 225 227 227 226 227 229 228 225 224 227 233 237 237 237 238 241 242 244 245 247 249 250 250 251 252 254 255 256 257 258 259 260 261 262 263 264 265 266 266 266 266 267 268 270 271 272 274 274 273 273 274 276 278 280 282 285 288 290 292 293 294 295 296
201 201 202 202 203 204 205 206 208 210 212 213 214 216 218 219 220 221 221 220 220 221 222 222 223 223 223 224 225 223 222 222 226 232 236 238 239 240 242 244 245 247 248 249 250 251 251 252 254 255 256 257 258 259 260 261 262 264 265 265 266 267 267 267 268 269 269 270 270 273 275 275 275 276 277 278 280 283 286 289 291 292 293 294 295 295
202 203 203 203 204 204 205 207 208 210 211 213 215 217 218 219 221 222 223 222 222 224 224 221 218 217 217 219 219 218 218 221 226 231 236 239 240 242 244 246 248 248 247 247 248 249 250 252 253 254 255 257 259 260 262 263 264 265 266 267 268 268 268 268 269 269 268 269 271 273 273 273 274 275 276 278 281 284 287 289 291 292 292 293 294 295
205 206 206 206 205 205 206 207 209 210 212 214 216 218 219 221 222 224 225 225 225 226 225 221 216 213 214 216 216 215 217 221 226 231 235 239 241 244 245 247 248 248 247 246 247 248 249 250 252 254 255 257 259 261 263 264 266 267 268 268 268 269 269 270 269 269 269 270 270 270 270 271 273 276 278 281 283 286 288 289 290 291 291 292 293 294
208 209 209 208 207 208 208 209 210 211 213 215 217 219 220 222 223 225 226 225 225 224 222 218 213 212 214 216 216 216 218 222 227 231 235 239 242 243 244 246 247 247 247 247 248 248 249 250 251 253 255 257 259 261 263 265 267 268 268 269 270 270 271 270 269 269 270 270 269 268 269 271 274 277 280 282 284 286 288 289 290 291 291 292 293 294
212 213 213 211 209 210 210 211 212 213 214 215 217 219 221 222 224 225 225 223 220 217 215 213 211 211 213 215 216 217 219 223 228 232 236 239 242 243 244 245 246 246 247 247 248 249 249 250 251 252 254 256 258 260 262 265 266 268 268 269 270 271 271 271 270 270 270 270 270 269 270 272 275 278 280 282 284 286 287 289 290 291 291 292 293 293
211 212 212 211 210 210 210 211 212 213 215 216 216 218 219 220 222 222 221 217 213 210 210 210 210 210 212 214 216 217 220 223 228 233 236 239 242 244 245 246 246 246 246 246 247 248 249 250 251 252 254 256 258 260 263 265 267 268 269 270 271 272 272 272 272 272 272 271 271 271 272 274 276 278 280 282 284 286 287 288 289 289 290 291 292 292
201 201 202 205 206 207 208 210 212 212 214 215 216 216 217 217 217 217 216 212 208 206 206 207 209 210 211 214 216 218 221 224 227 232 237 240 243 246 247 247 247 246 245 245 246 248 249 250 252 254 255 257 260 262 264 266 267 269 270 271 272 273 273 274 274 274 273 273 273 273 274 275 277 279 281 282 284 285 286 287 288 288 289 291 291 292
195 195 196 198 201 203 205 208 210 210 211 212 212 213 213 213 212 212 212 210 207 205 205 206 208 210 212 214 217 219 222 225 228 232 237 241 244 246 248 248 247 246 245 246 247 248 249 251 253 255 257 259 261 263 265 267 268 270 271 272 274 274 274 275 275 275 275 275 275 275 276 277 278 280 281 282 284 285 286 286 287 288 289 290 291 292
194 194 194 194 196 199 202 205 207 208 208 208 208 208 209 210 210 211 210 209 206 205 204 206 208 211 213 215 218 221 224 227 231 234 237 240 243 245 246 247 247 247 247 248 248 249 250 251 253 255 258 260 262 264 266 267 269 271 272 273 274 275 275 276 276 275 275 275 276 276 276 277 278 279 281 282 283 284 285 286 287 288 289 290 291 293
193 194 193 193 195 197 200 203 205 206 206 205 205 205 206 208 209 210 211 210 208 206 206 207 210 213 215 217 220 222 225 229 231 234 236 238 241 243 244 246 247 248 249 250 250 251 252 254 256 257 259 261 263 265 267 268 270 271 272 274 274 275 275 276 276 275 275 274 274 274 275 277 279 280 281 282 283 284 285 286 287 289 290 290 292 293
192 193 193 194 196 198 200 202 205 206 205 204 204 205 206 208 210 211 211 211 211 210 210 211 214 217 219 221 223 225 227 230 233 235 236 238 240 242 243 243 244 246 248 249 251 253 254 256 258 260 261 263 264 266 268 269 270 271 272 272 273 273 273 274 274 274 274 273 273 275 276 278 280 281 282 282 283 284 285 286 288 289 289 290 292 293
191 193 194 196 199 201 202 203 205 205 205 204 204 205 206 208 210 211 212 213 213 214 214 216 218 220 223 225 227 229 231 234 236 238 239 241 242 243 243 243 243 245 247 249 251 253 255 257 258 260 261 263 264 265 266 267 268 269 270 270 271 271 272 272 273 274 273 273 273 275 277 279 279 280 280 281 282 283 285 286 287 288 289 290 292 292
193 194 196 198 200 202 204 206 207 207 206 205 205 205 207 209 210 211 213 214 215 216 218 219 221 223 225 228 230 232 235 237 239 241 242 243 244 244 244 244 245 246 248 250 252 254 255 257 258 259 260 261 263 264 265 266 267 268 268 269 269 270 271 272 273 274 273 272 272 274 275 276 277 278 279 281 283 284 286 287 287 288 289 291 292 293
Height
10548 10558 10571 10586 10597 10603 10607 10611 10617 10622 10625 10629 10634 10639 10643 10647 10650 10650 10651 10654 10658 10665 10673 10678 10679 10679 10681 10686 10689 10692 10698 10704 10708 10711 10712 10715 10721 10726 10728 10730 10732 10734 10736 10737 10737 10737 10739 10740 10741 10742 10745 10746 10746 10748 10750 10752 10752 10753 10753 10754 10755 10757 10759 10761 10762 10763 10763 10763 10763 10763 10763 10763 10763 10763 10763 10763 10764 10764 10765 10765 10765 10764 10764 10763 10763 10763
10539 10555 10574 10584 10587 10590 10594 10600 10607 10613 10616 10620 10627 10633 10637 10642 10645 10644 10645 10648 10653 10659 10666 10671 10673 10673 10675 10679 10684 10689 10695 10701 10704 10706 10709 10712 10717 10721 10722 10724 10726 10729 10730 10731 10731 10732 10734 10735 10736 10737 10739 10739 10740 10743 10745 10747 10748 10748 10749 10749 10751 10753 10754 10755 10757 10759 10759 10759 10759 10759 10760 10760 10759 10759 10759 10758 10759 10760 10760 10761 10761 10761 10760 10759 10758 10759
10539 10559 10571 10572 10575 10580 10586 10593 10600 10605 10608 10613 10621 10627 10631 10637 10639 10639 10639 10642 10648 10654 10659 10665 10667 10666 10669 10675 10682 10688 10693 10697 10700 10704 10706 10710 10713 10714 10715 10718 10721 10723 10724 10725 10725 10727 10728 10729 10730 10732 10733 10733 10735 10737 10740 10741 10742 10743 10744 10745 10746 10748 10750 10751 10753 10755 10755 10755 10755 10756 10756 10756 10756 10755 10754 10754 10755 10756 10756 10757 10757 10757 10756 10755 10755 10754
10541 10555 10558 10559 10566 10572 10579 10588 10594 10598 10602 10609 10617 10622 10627 10631 10632 10634 10633 10636 10643 10647 10653 10658 10660 10661 10665 10673 10680 10685 10689 10692 10697 10700 10703 10705 10706 10707 10710 10712 10715 10718 10719 10719 10720 10721 10722 10723 10725 10726 10727 10728 10729 10731 10733 10735 10736 10737 10739 10740 10742 10743 10745 10747 10749 10750 10751 10752 10752 10752 10752 10752 10753 10751 10750 10751 10751 10751 10752 10753 10753 10753 10752 10752 10751 10750
10532 10541 10544 10551 10558 10565 10573 10581 10588 10593 10599 10605 10612 10617 10621 10623 10626 10627 10625 10629 10635 10639 10646 10652 10655 10659 10665 10672 10677 10681 10684 10689 10693 10696 10698 10700 10701 10702 10705 10708 10711 10713 10713 10713 10714 10716 10717 10718 10720 10721 10722 10723 10724 10726 10728 10730 10731 10732 10733 10735 10737 10739 10741 10743 10745 10746 10747 10748 10748 10748 10748 10748 10748 10747 10747 10747 10747 10747 10748 10749 10749 10749 10749 10748 10747 10746
10520 10529 10535 10543 10550 10558 10567 10576 10583 10589 10594 10599 10606 10611 10613 10615 10618 10619 10618 10622 10628 10634 10642 10647 10651 10657 10663 10669 10673 10677 10681 10685 10688 10690 10693 10694 10696 10699 10701 10703 10706 10706 10707 10708 10710 10711 10712 10713 10714 10715 10717 10718 10720 10721 10724 10725 10726 10727 10728 10730 10732 10734 10737 10740 10742 10743 10744 10743 10743 10743 10742 10743 10743 10743 10743 10742 10742 10743 10744 10745 10745 10745 10744 10744 10743 10742
10511 10521 10527 10534 10542 10551 10560 10569 10577 10582 10586 10593 10599 10603 10604 10607 10611 10611 10613 10618 10624 10630 10636 10640 10646 10654 10659 10664 10669 10673 10675 10679 10682 10685 10688 10690 10692 10695 10696 10698 10699 10700 10701 10703 10704 10705 10707 10708 10710 10711 10712 10713 10715 10718 10720 10721 10721 10722 10724 10727 10729 10732 10737 10740 10742 10744 10742 10737 10735 10736 10737 10737 10737 10738 10738 10737 10738 10739 10740 10740 10740 10740 10740 10739 10738 10737
10504 10513 10520 10528 10536 10544 10555 10565 10571 10575 10581 10587 10592 10594 10596 10600 10603 10604 10608 10613 10618 10622 10626 10633 10643 10651 10656 10661 10665 10667 10670 10674 10678 10681 10683 10684 10687 10689 10691 10692 10693 10695 10697 10698 10699 10700 10702 10703 10705 10706 10707 10709 10711 10714 10716 10716 10717 10719 10721 10724 10728 10734 10740 10741 10741 10742 10737 10730 10728 10729 10730 10731 10732 10733 10733 10733 10734 10735 10736 10735 10735 10735 10734 10734 10733 10732
10498 10506 10515 10522 10530 10541 10554 10561 10564 10567 10573 10580 10582 10584 10587 10591 10593 10597 10602 10607 10609 10613 10621 10632 10642 10650 10656 10659 10660 10664 10668 10673 10676 10676 10676 10678 10682 10685 10686 10688 10690 10691 10692 10693 10695 10696 10697 10698 10700 10702 10703 10705 10707 10710 10711 10712 10713 10715 10718 10721 10725 10733 10737 10734 10733 10734 10731 10728 10726 10724 10724 10726 10727 10727 10728 10729 10730 10731 10731 10731 10729 10729 10728 10728 10728 10728
10488 10498 10505 10512 10525 10539 10548 10552 10554 10559 10567 10572 10571 10574 10579 10582 10586 10591 10596 10600 10601 10608 10623 10634 10641 10649 10654 10655 10657 10662 10667 10670 10670 10669 10671 10675 10679 10682 10683 10685 10687 10687 10687 10689 10691 10691 10692 10693 10696 10697 10699 10701 10703 10706 10707 10708 10710 10711 10714 10717 10720 10725 10726 10724 10725 10728 10729 10729 10725 10719 10718 10720 10720 10722 10724 10725 10726 10727 10727 10726 10724 10723 10723 10723 10723 10723
10480 10489 10494 10507 10522 10531 10537 10541 10545 10552 10559 10560 10560 10566 10572 10575 10580 10585 10591 10593 10597 10612 10629 10634 10638 10645 10649 10652 10656 10659 10661 10660 10660 10663 10669 10673 10675 10677 10680 10682 10683 10683 10684 10685 10687 10687 10687 10689 10691 10693 10695 10697 10700 10702 10703 10705 10706 10707 10710 10712 10714 10717 10718 10718 10720 10722 10724 10724 10721 10716 10715 10715 10716 10717 10720 10721 10722 10722 10722 10720 10719 10718 10718 10717 10718 10718
10475 10482 10493 10508 10517 10521 10526 10531 10537 10545 10550 10550 10552 10560 10564 10568 10574 10580 10584 10589 10601 10621 10631 10629 10632 10639 10645 10652 10654 10654 10653 10652 10655 10661 10667 10669 10670 10673 10676 10677 10678 10679 10680 10681 10682 10683 10683 10685 10687 10689 10691 10693 10695 10698 10699 10701 10702 10703 10705 10707 10708 10710 10712 10713 10715 10716 10717 10717 10715 10713 10712 10713 10713 10714 10715 10716 10717 10717 10716 10715 10714 10714 10713 10713 10713 10712
10472 10482 10492 10502 10507 10512 10519 10524 10530 10538 10541 10542 10546 10553 10558 10564 10570 10576 10584 10594 10611 10625 10625 10620 10625 10633 10643 10649 10648 10647 10647 10648 10652 10657 10661 10663 10665 10668 10671 10672 10673 10675 10676 10677 10677 10678 10678 10680 10682 10684 10686 10688 10691 10694 10696 10697 10698 10699 10700 10701 10703 10705 10707 10709 10710 10712 10712 10710 10708 10708 10709 10710 10710 10710 10711 10712 10712 10712 10711 10710 10709 10709 10709 10708 10708 10707
10467 10474 10481 10489 10498 10507 10515 10522 10530 10538 10541 10541 10546 10554 10559 10565 10572 10580 10590 10601 10613 10619 10614 10612 10619 10630 10640 10643 10642 10642 10643 10644 10647 10652 10658 10660 10662 10664 10666 10667 10669 10670 10671 10671 10672 10673 10674 10676 10678 10680 10682 10684 10687 10690 10692 10693 10694 10695 10696 10697 10699 10700 10702 10704 10705 10707 10707 10705 10703 10704 10705 10706 10707 10707 10707 10707 10708 10707 10706 10705 10704 10704 10704 10704 10703 10702
10460 10466 10476 10488 10499 10508 10517 10525 10533 10539 10539 10539 10545 10552 10558 10566 10576 10584 10591 10600 10607 10609 10605 10606 10616 10629 10636 10638 10637 10636 10637 10640 10645 10651 10656 10658 10658 10659 10660 10663 10664 10665 10665 10666 10668 10669 10670 10672 10673 10675 10678 10680 10683 10685 10687 10689 10690 10691 10693 10694 10695 10696 10698 10699 10700 10702 10702 10701 10700 10700 10701 10702 10703 10703 10703 10703 10703 10703 10701 10700 10699 10699 10699 10698 10698 10697
10454 10464 10478 10488 10496 10505 10514 10521 10526 10530 10529 10531 10537 10546 10556 10567 10573 10577 10583 10592 10597 10598 10598 10603 10616 10626 10630 10631 10630 10630 10633 10640 10645 10649 10651 10653 10654 10653 10655 10658 10660 10660 10660 10661 10663 10665 10666 10667 10669 10671 10674 10676 10679 10681 10683 10685 10686 10688 10689 10690 10691 10692 10694 10695 10696 10697 10697 10698 10697 10697 10697 10698 10698 10699 10699 10699 10698 10697 10696 10695 10694 10694 10693 10692 10692 10692
10452 10462 10472 10479 10487 10497 10504 10511 10518 10523 10524 10524 10533 10547 10558 10562 10562 10566 10576 10584 10588 10591 10596 10604 10614 10621 10623 10625 10626 10627 10634 10640 10643 10645 10646 10648 10647 10646 10649 10653 10655 10656 10656 10657 10659 10661 10662 10663 10665 10667 10669 10672 10674 10676 10679 10680 10682 10683 10685 10686 10687 10688 10690 10691 10692 10692 10693 10694 10694 10694 10694 10694 10694 10694 10694 10693 10693 10692 10691 10690 10689 10688 10688 10687 10687 10687
10449 10457 10464 10473 10482 10489 10495 10502 10509 10515 10515 10519 10536 10549 10549 10547 10552 10562 10571 10578 10584 10590 10596 10603 10610 10614 10617 10620 10622 10626 10633 10636 10638 10641 10641 10640 10639 10640 10644 10649 10651 10652 10652 10654 10655 10657 10658 10659 10661 10663 10665 10667 10669 10671 10674 10675 10677 10679 10681 10682 10683 10685 10686 10687 10688 10688 10689 10689 10690 10690 10690 10690 10690 10690 10689 10689 10688 10687 10687 10685 10684 10683 10683 10683 10683 10682
10444 10451 10460 10469 10475 10480 10485 10491 10497 10504 10508 10518 10534 10537 10534 10540 10553 10562 10569 10576 10582 10588 10593 10599 10603 10608 10612 10616 10619 10623 10628 10631 10634 10635 10632 10631 10634 10638 10642 10645 10647 10647 10648 10650 10651 10653 10654 10655 10657 10659 10661 10662 10665 10667 10669 10670 10673 10675 10676 10678 10679 10680 10681 10682 10683 10684 10684 10685 10685 10685 10686 10686 10686 10685 10685 10684 10683 10683 10682 10681 10680 10679 10678 10678 10677 10676
10437 10446 10455 10461 10465 10469 10475 10483 10494 10503 10508 10515 10522 10522 10526 10539 10550 10557 10564 10572 10577 10583 10589 10594 10598 10604 10608 10610 10614 10620 10623 10626 10629 10628 10625 10627 10632 10635 10638 10640 10641 10643 10644 10646 10648 10649 10650 10651 10653 10654 10656 10658 10660 10662 10664 10666 10668 10670 10672 10674 10675 10676 10677 10678 10679 10679 10680 10680 10680 10680 10680 10680 10680 10680 10680 10679 10678 10678 10677 10676 10675 10674 10674 10673 10672 10671
10430 10438 10447 10452 10455 10462 10473 10487 10500 10507 10510 10514 10518 10522 10530 10540 10546 10551 10558 10565 10571 10578 10584 10590 10595 10600 10603 10605 10610 10615 10618 10622 10624 10622 10621 10625 10629 10631 10633 10635 10636 10638 10641 10642 10644 10646 10647 10647 10648 10649 10651 10653 10655 10657 10659 10661 10664 10666 10668 10669 10670 10671 10672 10673 10674 10675 10675 10676 10676 10676 10676 10675 10675 10674 10674 10673 10673 10672 10671 10671 10670 10669 10669 10667 10666 10665
10426 10433 10440 10445 10452 10466 10482 10494 10500 10503 10505 10510 10516 10523 10531 10537 10542 10548 10555 10562 10568 10574 10580 10586 10591 10595 10598 10601 10606 10609 10613 10618 10618 10616 10618 10621 10624 10627 10630 10630 10632 10635 10637 10639 10641 10642 10643 10643 10644 10645 10647 10649 10651 10653 10654 10656 10659 10661 10663 10665 10666 10667 10668 10669 10670 10670 10671 10671 10671 10671 10671 10670 10670 10669 10669 10668 10667 10666 10665 10665 10665 10664 10663 10662 10660 10659
10418 10427 10436 10445 10459 10473 10481 10484 10486 10490 10494 10498 10504 10512 10520 10527 10535 10545 10555 10561 10566 10571 10577 10583 10586 10590 10593 10597 10600 10603 10608 10612 10612 10612 10614 10618 10621 10624 10626 10627 10628 10631 10633 10635 10636 10637 10638 10639 10639 10640 10642 10645 10647 10648 10649 10651 10653 10655 10658 10660 10661 10662 10663 10664 10665 10666 10666 10666 10667 10666 10666 10666 10665 10665 10664 10663 10662 10661 10660 10660 10659 10659 10657 10655 10654 10653
10411 10424 10435 10447 10458 10465 10467 10469 10473 10478 10483 10488 10494 10503 10513 10522 10533 10544 10551 10556 10561 10567 10574 10579 10583 10587 10589 10593 10596 10600 10604 10607 10608 10609 10613 10616 10618 10621 10622 10623 10625 10626 10629 10631 10632 10633 10634 10634 10634 10636 10638 10640 10642 10643 10644 10645 10647 10650 10652 10654 10656 10657 10658 10659 10660 10661 10661 10662 10662 10662 10661 10661 10660 10660 10659 10658 10657 10656 10655 10655 10654 10652 10651 10649 10647 10646
10412 10422 10432 10442 10447 10451 10454 10459 10464 10470 10477 10485 10493 10503 10513 10523 10532 10540 10545 10550 10557 10564 10570 10576 10580 10583 10586 10589 10593 10597 10601 10604 10606 10609 10611 10613 10615 10616 10618 10619 10621 10622 10625 10626 10627 10629 10629 10629 10630 10631 10633 10635 10638 10639 10640 10640 10642 10645 10647 10649 10650 10651 10652 10654 10655 10656 10656 10657 10657 10656 10656 10655 10655 10654 10653 10652 10651 10650 10650 10649 10648 10646 10644 10642 10640 10639
10406 10415 10424 10433 10439 10447 10456 10463 10470 10477 10484 10490 10498 10507 10515 10522 10530 10536 10542 10549 10556 10562 10568 10572 10576 10579 10582 10585 10589 10593 10598 10601 10604 10606 10607 10608 10610 10613 10614 10614 10616 10618 10620 10622 10623 10624 10625 10625 10625 10626 10627 10630 10633 10634 10635 10636 10637 10640 10642 10644 10645 10646 10647 10648 10649 10650 10651 10651 10651 10650 10650 10649 10649 10648 10647 10645 10644 10643 10643 10643 10641 10639 10637 10635 10634 10632
10404 10412 10421 10428 10439 10452 10462 10469 10476 10483 10489 10495 10502 10509 10516 10522 10528 10534 10541 10548 10554 10559 10564 10568 10571 10575 10578 10582 10586 10589 10593 10596 10599 10601 10601 10603 10606 10608 10608 10608 10611 10614 10616 10618 10619 10619 10620 10620 10620 10621 10622 10625 10628 10630 10631 10632 10633 10636 10638 10639 10639 10641 10642 10643 10644 10645 10645 10645 10645 10645 10644 10643 10642 10641 10640 10639 10638 10637 10637 10637 10635 10632 10630 10629 10627 10625
10405 10414 10422 10430 10440 10449 10453 10459 10468 10477 10485 10491 10497 10504 10512 10518 10524 10531 10538 10545 10549 10554 10559 10563 10567 10571 10575 10579 10582 10585 10589 10592 10595 10597 10597 10598 10601 10603 10603 10605 10607 10610 10612 10613 10614 10614 10615 10615 10615 10616 10618 10620 10623 10625 10626 10627 10629 10631 10633 10633 10634 10636 10637 10637 10638 10638 10639 10639 10639 10639 10638 10637 10636 10635 10634 10632 10631 10631 10631 10631 10628 10625 10623 10622 10621 10619
10405 10415 10423 10430 10438 10443 10447 10454 10463 10471 10479 10485 10492 10500 10507 10513 10520 10528 10535 10540 10544 10550 10554 10558 10563 10568 10571 10574 10577 10581 10584 10586 10590 10592 10594 10595 10598 10598 10599 10600 10603 10605 10607 10608 10609 10610 10611 10611 10611 10612 10614 10616 10619 10620 10621 10623 10625 10627 10628 10629 10630 10631 10631 10632 10632 10633 10633 10633 10633 10633 10632 10631 10629 10628 10627 10626 10625 10625 10625 10624 10621 10618 10616 10615 10614 10612
10406 10415 10422 10428 10436 10442 10448 10455 10463 10469 10475 10482 10489 10495 10502 10509 10517 10524 10530 10534 10540 10546 10549 10554 10559 10563 10566 10570 10573 10576 10579 10583 10586 10590 10592 10593 10594 10593 10593 10594 10597 10600 10602 10604 10606 10607 10607 10608 10607 10608 10609 10612 10614 10615 10616 10619 10621 10623 10623 10624 10625 10626 10626 10626 10627 10628 10628 10628 10627 10626 10625 10624 10623 10623 10621 10620 10619 10619 10619 10617 10614 10612 10610 10609 10607 10606
10407 10413 10420 10428 10436 10442 10449 10455 10461 10467 10473 10479 10484 10489 10497 10505 10513 10521 10527 10532 10538 10543 10546 10550 10555 10559 10563 10567 10570 10573 10578 10581 10584 10586 10588 10589 10588 10587 10587 10588 10591 10595 10597 10600 10602 10603 10604 10604 10604 10604 10605 10608 10610 10611 10612 10615 10617 10618 10619 10619 10620 10621 10621 10622 10623 10623 10623 10622 10621 10620 10619 10618 10618 10617 10616 10614 10614 10614 10613 10611 10608 10606 10605 10604 10602 10601
10406 10412 10419 10427 10434 10440 10446 10453 10459 10466 10472 10476 10480 10486 10494 10503 10511 10519 10524 10530 10535 10540 10544 10548 10553 10556 10560 10564 10567 10571 10574 10577 10579 10581 10582 10582 10581 10581 10582 10583 10586 10589 10592 10595 10597 10599 10600 10601 10600 10600 10601 10603 10605 10607 10609 10611 10613 10614 10615 10616 10616 10617 10617 10618 10619 10619 10617 10616 10614 10614 10613 10613 10613 10612 10609 10607 10608 10608 10606 10604 10602 10601 10600 10599 10597 10595
10405 10410 10418 10425 10432 10438 10445 10452 10459 10464 10467 10470 10476 10484 10493 10502 10510 10516 10521 10527 10532 10537 10542 10546 10550 10553 10557 10561 10564 10567 10569 10571 10573 10574 10574 10575 10576 10576 10577 10580 10582 10585 10587 10590 10592 10594 10596 10598 10598 10597 10597 10598 10600 10603 10605 10607 10608 10610 10611 10611 10612 10612 10613 10615 10616 10614 10611 10610 10609 10609 10608 10607 10608 10607 10603 10601 10602 10601 10600 10599 10597 10596 10595 10593 10591 10590
10404 10410 10417 10423 10430 10437 10444 10451 10457 10460 10463 10468 10476 10485 10494 10501 10507 10513 10517 10523 10528 10532 10537 10541 10545 10549 10553 10556 10559 10562 10563 10565 10566 10567 10569 10570 10571 10573 10575 10576 10578 10580 10582 10585 10587 10590 10592 10594 10595 10594 10593 10593 10595 10598 10601 10602 10604 10605 10606 10607 10607 10608 10610 10612 10611 10608 10606 10604 10604 10605 10604 10601 10601 10600 10598 10597 10596 10595 10594 10593 10591 10590 10589 10587 10585 10584
10404 10410 10416 10422 10428 10435 10441 10449 10454 10458 10463 10469 10476 10485 10493 10499 10504 10509 10514 10519 10524 10528 10533 10537 10541 10545 10547 10549 10552 10555 10558 10560 10562 10564 10565 10566 10568 10571 10572 10572 10572 10575 10578 10580 10583 10585 10588 10590 10591 10590 10590 10590 10591 10593 10596 10597 10599 10601 10601 10602 10602 10604 10607 10607 10605 10603 10602 10599 10598 10601 10602 10599 10597 10595 10592 10590 10590 10588 10587 10587 10586 10584 10583 10581 10579 10577
10403 10408 10414 10421 10427 10433 10439 10446 10452 10457 10463 10469 10475 10483 10490 10494 10499 10504 10510 10515 10521 10525 10529 10533 10537 10540 10542 10545 10548 10551 10554 10557 10559 10560 10559 10561 10565 10567 10566 10566 10568 10571 10573 10575 10578 10581 10584 10586 10587 10587 10587 10587 10587 10589 10591 10593 10595 10596 10596 10596 10597 10599 10601 10601 10599 10599 10599 10596 10593 10595 10597 10596 10595 10592 10588 10585 10583 10581 10580 10580 10580 10578 10577 10575 10573 10571
10401 10406 10413 10420 10426 10431 10438 10444 10449 10455 10461 10466 10472 10478 10483 10488 10493 10499 10505 10511 10516 10521 10525 10529 10533 10536 10539 10543 10546 10548 10550 10553 10555 10554 10553 10555 10559 10559 10559 10561 10564 10566 10568 10571 10575 10578 10580 10582 10583 10583 10583 10583 10583 10585 10587 10588 10590 10591 10590 10590 10591 10593 10595 10595 10594 10594 10594 10592 10589 10587 10588 10589 10589 10588 10585 10582 10579 10577 10575 10574 10574 10572 10570 10569 10567 10565
10399 10405 10411 10417 10423 10429 10435 10441 10447 10453 10457 10462 10468 10473 10478 10483 10489 10494 10500 10505 10511 10515 10520 10524 10528 10532 10535 10539 10542 10544 10546 10549 10549 10547 10546 10548 10551 10552 10554 10557 10560 10562 10565 10569 10572 10575 10576 10577 10578 10578 10578 10578 10578 10580 10581 10583 10584 10584 10585 10585 10585 10587 10588 10589 10588 10589 10589 10588 10586 10582 10579 10579 10580 10579 10578 10576 10573 10572 10571 10569 10568 10566 10564 10563 10561 10558
10398 10404 10409 10415 10420 10427 10433 10439 10444 10450 10455 10460 10465 10469 10474 10480 10485 10490 10495 10501 10506 10510 10514 10518 10522 10526 10530 10533 10536 10539 10541 10543 10542 10540 10539 10541 10544 10546 10550 10553 10556 10560 10563 10566 10568 10570 10571 10572 10572 10572 10572 10572 10573 10574 10576 10578 10578 10579 10579 10579 10579 10581 10582 10583 10583 10583 10583 10582 10581 10578 10574 10571 10571 10571 10570 10568 10567 10566 10565 10564 10563 10561 10558 10556 10555 10552
10398 10402 10407 10412 10418 10424 10430 10436 10442 10447 10452 10457 10462 10466 10472 10477 10482 10487 10493 10499 10504 10507 10510 10514 10517 10519 10523 10527 10530 10533 10535 10535 10534 10533 10534 10537 10539 10543 10547 10550 10553 10556 10559 10561 10563 10564 10566 10566 10566 10566 10566 10567 10568 10569 10571 10572 10572 10573 10573 10573 10574 10575 10576 10577 10577 10577 10576 10576 10576 10574 10570 10565 10563 10563 10563 10562 10561 10560 10559 10558 10557 10555 10553 10550 10549 10547
10397 10401 10406 10411 10417 10423 10428 10434 10439 10445 10450 10454 10459 10464 10469 10474 10480 10486 10490 10495 10500 10502 10505 10509 10512 10514 10518 10521 10524 10527 10528 10528 10529 10530 10532 10534 10537 10540 10543 10545 10548 10551 10554 10556 10558 10559 10560 10560 10560 10561 10561 10562 10563 10564 10565 10566 10566 10567 10567 10567 10568 10569 10569 10571 10571 10570 10570 10571 10571 10569 10564 10558 10557 10557 10557 10556 10556 10554 10553 10552 10551 10549 10547 10545 10543 10541
10397 10401 10406 10412 10418 10423 10428 10432 10438 10443 10447 10452 10457 10462 10467 10473 10477 10482 10485 10490 10494 10497 10500 10504 10507 10510 10514 10517 10519 10522 10523 10524 10526 10528 10529 10531 10533 10535 10538 10541 10544 10546 10549 10551 10553 10553 10554 10555 10555 10556 10556 10557 10558 10559 10560 10560 10560 10561 10561 10561 10562 10563 10564 10565 10565 10563 10564 10565 10565 10563 10558 10552 10551 10552 10552 10550 10550 10549 10547 10546 10545 10543 10541 10539 10537 10535
10399 10403 10407 10413 10418 10422 10427 10431 10436 10440 10445 10450 10455 10460 10464 10469 10473 10476 10480 10485 10489 10492 10495 10499 10502 10506 10509 10512 10515 10518 10520 10522 10523 10524 10525 10526 10528 10530 10533 10536 10539 10542 10544 10546 10547 10548 10549 10550 10550 10551 10551 10552 10553 10554 10554 10555 10555 10555 10555 10556 10557 10557 10557 10558 10558 10558 10558 10559 10558 10556 10553 10548 10547 10547 10547 10545 10544 10543 10541 10540 10538 10537 10534 10532 10531 10528
10400 10404 10408 10411 10415 10419 10423 10427 10432 10437 10441 10446 10451 10455 10459 10464 10467 10471 10475 10479 10483 10487 10491 10494 10497 10500 10504 10507 10509 10512 10515 10517 10518 10519 10520 10521 10523 10526 10529 10532 10535 10538 10539 10540 10541 10542 10543 10544 10545 10546 10546 10547 10548 10549 10549 10549 10549 10550 10550 10551 10551 10552 10551 10551 10552 10552 10552 10552 10551 10550 10547 10544 10543 10542 10540 10539 10538 10537 10535 10533 10532 10530 10528 10526 10524 10522
10398 10402 10406 10409 10412 10415 10419 10423 10428 10433 10438 10443 10448 10452 10455 10459 10462 10466 10470 10475 10479 10483 10487 10490 10493 10495 10498 10501 10504 10507 10509 10511 10513 10514 10515 10517 10519 10522 10525 10528 10530 10532 10534 10535 10536 10537 10538 10539 10540 10541 10541 10542 10542 10543 10543 10544 10544 10544 10545 10546 10546 10546 10546 10546 10546 10546 10545 10544 10544 10543 10540 10538 10537 10536 10534 10533 10532 10530 10528 10527 10525 10523 10521 10520 10518 10516
10396 10399 10403 10406 10409 10413 10417 10421 10425 10430 10435 10440 10444 10448 10452 10455 10458 10462 10466 10471 10475 10479 10483 10486 10488 10491 10493 10496 10498 10501 10503 10505 10508 10510 10511 10513 10515 10517 10519 10522 10524 10526 10528 10530 10531 10533 10534 10534 10535 10535 10536 10536 10536 10537 10538 10538 10539 10539 10539 10540 10540 10540 10540 10540 10540 10539 10538 10537 10536 10535 10533 10531 10530 10529 10527 10526 10525 10523 10522 10520 10518 10517 10515 10514 10512 10509
10395 10398 10401 10404 10408 10412 10416 10420 10423 10427 10432 10436 10440 10444 10448 10452 10456 10459 10463 10467 10471 10475 10478 10481 10484 10486 10489 10491 10494 10496 10499 10502 10504 10506 10507 10508 10510 10511 10513 10516 10518 10521 10523 10525 10526 10528 10528 10529 10529 10530 10530 10530 10531 10531 10532 10533 10533 10533 10533 10534 10534 10533 10533 10534 10533 10532 10531 10530 10529 10527 10526 10524 10523 10522 10520 10519 10518 10517 10515 10513 10512 10510 10509 10507 10505 10503
10394 10397 10400 10403 10406 10410 10414 10418 10421 10425 10430 10434 10438 10442 10445 10449 10452 10456 10460 10464 10467 10471 10474 10477 10479 10482 10484 10487 10489 10492 10495 10497 10498 10499 10500 10502 10504 10506 10509 10511 10514 10516 10518 10519 10521 10522 10522 10523 10524 10524 10525 10525 10525 10525 10526 10526 10527 10527 10527 10527 10527 10527 10527 10526 10526 10524 10523 10523 10521 10520 10519 10518 10517 10515 10514 10513 10512 10510 10509 10507 10505 10504 10502 10500 10498 10497
10393 10396 10399 10403 10405 10408 10411 10414 10418 10421 10426 10431 10436 10440 10444 10447 10450 10453 10457 10460 10464 10468 10471 10474 10476 10479 10481 10483 10485 10487 10489 10491 10492 10493 10495 10498 10500 10502 10505 10507 10509 10511 10512 10514 10515 10516 10517 10518 10518 10518 10519 10519 10519 10519 10520 10520 10520 10520 10520 10520 10520 10520 10520 10519 10518 10517 10515 10514 10513 10512 10512 10512 10510 10509 10507 10506 10505 10504 10502 10500 10499 10497 10495 10494 10492 10490
10392 10395 10398 10401 10404 10406 10409 10412 10415 10419 10424 10429 10434 10437 10441 10444 10447 10450 10454 10457 10461 10464 10468 10471 10473 10475 10477 10478 10480 10482 10484 10486 10487 10489 10491 10494 10496 10497 10500 10502 10504 10506 10507 10509 10510 10511 10512 10512 10513 10513 10513 10513 10512 10513 10513 10513 10513 10513 10513 10513 10514 10514 10514 10513 10511 10509 10507 10506 10505 10505 10505 10505 10503 10502 10500 10499 10498 10497 10495 10494 10492 10490 10488 10487 10485 10483
10392 10395 10397 10400 10403 10406 10409 10412 10415 10419 10423 10427 10431 10435 10439 10442 10445 10448 10451 10454 10457 10460 10463 10466 10468 10470 10471 10473 10475 10477 10479 10480 10482 10484 10486 10488 10490 10492 10494 10497 10498 10500 10502 10503 10504 10505 10506 10506 10506 10506 10506 10506 10506 10506 10507 10507 10507 10506 10506 10506 10507 10508 10508 10506 10504 10501 10497 10496 10497 10499 10498 10497 10496 10494 10493 10492 10491 10490 10488 10486 10484 10482 10481 10480 10478 10476